EW9766 Weather Reports


time (UTC)temp
C
wind
direction
speed
KPH
gust
KPH
rain 1hr
cm
rain 24hr
cm
rain mn
cm
humidity
%
barometer
mb
20260507063033 12 264 8.0 24.1 0.00 0.00 0.00 69 1020.2
20260507061535 12 267 6.4 25.7 0.00 0.00 0.00 69 1020.3
20260507060106 12 322 6.4 16.1 0.00 0.00 0.00 68 1020.4
20260507053032 13 284 8.0 19.3 0.00 0.00 0.00 65 1020.5
20260507050037 13 202 8.0 33.8 0.00 0.00 0.00 62 1020.6
20260507044534 13 252 9.7 27.4 0.00 0.00 0.00 62 1020.3
20260507041529 13 209 11.3 24.1 0.00 0.00 0.00 60 1020.4
20260507040045 13 207 9.7 19.3 0.00 0.00 0.00 59 1020.3
20260507034607 13 243 4.8 14.5 0.00 0.00 0.00 58 1020.3
20260507033031 14 233 6.4 16.1 0.00 0.00 0.00 58 1020.3
20260507031530 15 228 4.8 11.3 0.00 0.00 0.00 59 1020.3
20260507030038 15 246 4.8 19.3 0.00 0.00 0.00 58 1020.3
20260507024535 16 260 9.7 19.3 0.00 0.00 0.00 56 1020.3
20260507023150 17 262 12.9 30.6 0.00 0.00 0.00 54 1020.2
20260507021532 17 260 11.3 32.2 0.00 0.00 0.00 51 1020.0
20260507020029 18 264 12.9 37.0 0.00 0.00 0.00 50 1019.8
20260507014552 18 256 11.3 22.5 0.00 0.00 0.00 48 1019.7
20260507013148 19 257 12.9 29.0 0.00 0.00 0.00 46 1019.6
20260507011535 19 245 11.3 29.0 0.00 0.00 0.00 46 1019.8
20260507010031 20 242 11.3 24.1 0.00 0.00 0.00 44 1019.8
20260507004530 21 234 9.7 24.1 0.00 0.00 0.00 41 1019.7
20260507003033 21 224 12.9 29.0 0.00 0.00 0.00 41 1019.6
20260507001606 21 231 11.3 32.2 0.00 0.00 0.00 41 1019.5
20260507000030 21 237 11.3 35.4 0.00 0.00 0.00 40 1019.4
20260506234536 22 255 14.5 35.4 0.00 0.00 0.00 38 1019.2
20260506233035 23 252 11.3 29.0 0.00 0.00 0.00 38 1019.2
20260506231531 23 233 9.7 27.4 0.00 0.00 0.00 38 1019.2
20260506230107 23 243 11.3 32.2 0.00 0.00 0.00 38 1019.2
20260506224607 23 234 11.3 33.8 0.00 0.00 0.00 39 1019.3
20260506223107 22 240 11.3 35.4 0.00 0.00 0.00 40 1019.5
20260506221535 22 270 11.3 27.4 0.00 0.00 0.00 39 1019.6
20260506220032 23 267 14.5 35.4 0.00 0.00 0.00 38 1019.4
20260506211534 23 278 8.0 25.7 0.00 0.00 0.00 42 1019.4
20260506210032 23 274 11.3 30.6 0.00 0.00 0.00 43 1019.5
20260506204535 22 300 9.7 25.7 0.00 0.00 0.00 44 1019.6
20260506200029 23 291 11.3 29.0 0.00 0.00 0.00 44 1019.6
20260506191641 21 298 11.3 27.4 0.00 0.00 0.00 49 1019.7
20260506184531 21 352 14.5 25.7 0.00 0.00 0.00 52 1019.5
20260506181535 20 319 12.9 29.0 0.00 0.00 0.00 54 1019.8
20260506180031 20 346 12.9 24.1 0.00 0.00 0.00 56 1019.8
20260506174534 19 348 9.7 20.9 0.00 0.00 0.00 59 1019.7
20260506173034 18 9 8.0 14.5 0.00 0.00 0.00 60 1019.6
20260506171534 18 1 9.7 16.1 0.00 0.00 0.00 61 1019.7
20260506170033 17 14 8.0 14.5 0.00 0.00 0.00 63 1019.6
20260506164530 17 29 12.9 24.1 0.00 0.00 0.00 65 1019.8
20260506163107 17 26 12.9 19.3 0.00 0.00 0.00 66 1020.0
20260506161535 16 12 11.3 19.3 0.00 0.00 0.00 68 1020.1
20260506160031 16 26 8.0 14.5 0.00 0.00 0.00 69 1019.9
20260506154652 15 344 8.0 14.5 0.00 0.00 0.00 69 1020.0
20260506151643 15 64 1.6 8.0 0.00 0.00 0.00 73 1019.6
20260506150033 15 95 1.6 4.8 0.00 0.00 0.00 76 1019.8
20260506144531 15 108 1.6 6.4 0.00 0.00 0.00 81 1019.8
20260506143107 13 82 0.0 4.8 0.00 0.00 0.00 85 1019.8
20260506141535 11 82 1.6 8.0 0.00 0.00 0.00 89 1019.7
20260506140032 9 132 4.8 9.7 0.00 0.00 0.00 92 1019.6
20260506134606 7 142 6.4 9.7 0.00 0.00 0.00 92 1019.3
20260506133032 6 136 4.8 8.0 0.00 0.00 0.00 92 1019.2
20260506131645 6 145 4.8 9.7 0.00 0.00 0.00 92 1019.1
20260506130107 6 173 4.8 9.7 0.00 0.00 0.00 92 1019.0
20260506123036 6 180 6.4 8.0 0.00 0.00 0.00 92 1018.7
20260506121534 6 180 6.4 8.0 0.00 0.00 0.00 92 1018.5
20260506120035 6 184 6.4 8.0 0.00 0.00 0.00 91 1018.4
20260506114535 6 180 6.4 9.7 0.00 0.00 0.00 91 1018.3
20260506113034 6 200 6.4 8.0 0.00 0.00 0.00 91 1018.1
20260506111536 6 188 6.4 8.0 0.00 0.00 0.00 91 1018.0
20260506110030 6 180 6.4 8.0 0.00 0.00 0.00 91 1018.0
20260506104532 6 180 4.8 6.4 0.00 0.00 0.00 90 1017.8
20260506101530 7 158 1.6 4.8 0.00 0.00 0.00 90 1017.6
20260506100057 7 203 1.6 6.4 0.00 0.00 0.00 90 1017.6
20260506093142 7 180 1.6 6.4 0.00 0.00 0.00 89 1017.5
20260506091532 7 196 3.2 6.4 0.00 0.00 0.00 88 1017.4
20260506090035 7 202 3.2 6.4 0.00 0.00 0.00 88 1017.5
20260506084530 7 196 1.6 6.4 0.00 0.00 0.00 87 1017.3
20260506083110 8 168 1.6 6.4 0.00 0.00 0.00 86 1017.2
20260506081529 8 202 0.0 6.4 0.00 0.00 0.00 86 1017.1
20260506073032 10 253 0.0 0.0 0.00 0.00 0.00 84 1016.8